This demonstration page uses our WeatherBlox Daily Observations layout. Learn more.

Left ArrowRight Arrow

41.12389, -100.76542

Hourly Observations for July 2, 2015

Temp ( °F °C ) Dew Point ( °F °C ) Humidity (%) Winds ( mph kmh ) Pressure ( in mb ) Visibility ( mi km ) Precip ( " mm )
12:53 am 00:53 Clear 72 22.2 61 16.1 68 68 ENE 6 9 29.86 1011 10 16 0.00 0.00
1:28 am 01:28 Mostly Clear with Nearby Thunderstorms 69 20.6 62 16.7 78 78 NNW 3 6 29.85 1011 10 16 0.00 0.00
1:45 am 01:45 Mostly Cloudy with Light Rain 70 21 63 17 78 78 W 8 13 29.85 1011 10 16 0.00 0.00
1:53 am 01:53 Mostly Cloudy 71 21.7 63 17.2 76 76 VRB 3 6 29.87 1012 10 16 0.00 0.03
2:53 am 02:53 Mostly Cloudy 68 20 63 17.2 84 84 VRB 5 7 29.88 1012 10 16 0.00 0.03
3:53 am 03:53 Cloudy 69 20.6 63 17.2 81 81 N 9 15 29.91 1013 10 16 0.00 0.00
4:53 am 04:53 Cloudy with Light Rain 65 18.3 60 15.6 84 84 N 20 31 29.95 1014 10 16 0.02 0.51
5:53 am 05:53 Cloudy with Rain 63 17.2 58 14.4 84 84 NNW 15 24 29.98 1015 10 16 0.06 1.52
6:53 am 06:53 Cloudy 62 16.7 60 15.6 93 93 W 3 6 29.95 1014 10 16 0.03 0.76
7:53 am 07:53 Cloudy with Light Rain 64 17.8 61 16.1 90 90 SSW 8 13 29.89 1012 10 16 0.01 0.25
8:53 am 08:53 Sunny 66 18.9 62 16.7 87 87 N 12 19 29.93 1014 10 16 0.00 0.03
9:53 am 09:53 Sunny 74 23.3 62 16.7 67 67 WNW 13 20 29.94 1014 10 16 0.00 0.00
10:53 am 10:53 Sunny 79 26.1 61 16.1 54 54 NW 14 22 29.93 1014 10 16 0.00 0.00
11:53 am 11:53 Mostly Sunny 82 27.8 59 15 46 46 NNW 13 20 29.93 1014 10 16 0.00 0.00
12:53 pm 12:53 Mostly Sunny 83 28.3 59 15 44 44 N 12 19 29.93 1014 10 16 0.00 0.00
1:53 pm 13:53 Mostly Cloudy 83 28.3 61 16.1 48 48 N 14 22 29.93 1014 10 16 0.00 0.00
2:53 pm 14:53 Mostly Cloudy 84 28.9 56 13.3 38 38 NNW 10 17 29.93 1013 10 16 0.00 0.00
3:53 pm 15:53 Mostly Sunny 82 27.8 59 15 46 46 N 10 17 29.93 1014 10 16 0.00 0.00
4:53 pm 16:53 Partly Cloudy 80 26.7 60 15.6 51 51 NNE 12 19 29.93 1014 10 16 0.00 0.00
5:53 pm 17:53 Mostly Sunny 84 28.9 58 14.4 41 41 N 12 19 29.93 1013 10 16 0.00 0.00
6:53 pm 18:53 Mostly Sunny 82 27.8 57 13.9 42 42 N 12 19 29.92 1013 10 16 0.00 0.00
7:53 pm 19:53 Sunny 79 26.1 57 13.9 47 47 N 9 15 29.93 1014 10 16 0.00 0.00
8:53 pm 20:53 Sunny 73 22.8 59 15 62 62 N 6 9 29.95 1014 10 16 0.00 0.00
9:53 pm 21:53 Clear with Light Rain 68 20 59 15 73 73 Calm 29.96 1015 10 16 0.00 0.03
10:53 pm 22:53 Clear 66 18.9 58 14.4 75 75 NNE 3 6 29.97 1015 10 16 0.00 0.03
11:53 pm 23:53 Clear 65 18.3 58 14.4 78 78 Calm 29.98 1015 10 16 0.00 0.00

Powered by AerisWeather